This demonstration page uses our WeatherBlox Daily Observations layout. Learn more.

39.01783, -85.05884

Hourly Observations for January 18, 2019

Temp ( °F °C ) Dew Point ( °F °C ) Humidity (%) Winds ( mph kmh ) Pressure ( in mb ) Visibility ( mi km ) Precip ( " mm )
12:35 am 00:35 Cloudy with Mist and Fog 36 2.2 35 1.7 97 97 W 7 11 30.09 1019 5 8.04672 0 0
12:52 am 00:52 Cloudy with Mist and Fog 36 2.2 35 1.7 97 97 W 8 13 30.06 1018 5 8.04672 0 0
1:00 am 01:00 Cloudy with Mist and Fog 36 2.2 35 1.7 97 97 WSW 7 11 30.09 1019 0.75 1.207008 0 0
1:14 am 01:14 Cloudy with Mist and Fog 36 2.2 34 1.1 93 93 W 9 15 30.09 1019 5 8.04672 0 0
1:52 am 01:52 Cloudy with Mist and Fog 36 2.2 34 1.1 93 93 W 8 13 30.06 1018 5 8.04672 0 0
2:52 am 02:52 Cloudy with Mist and Fog 35 1.7 33 0.6 93 93 W 9 15 30.09 1019 5 8.04672 0 0
3:52 am 03:52 Cloudy with Mist and Fog 35 1.7 33 0.6 93 93 W 7 11 30.09 1019 6 9.656064 0 0
4:11 am 04:11 Cloudy with Mist and Fog 35 1.7 33 0.6 93 93 W 7 11 30.12 1020 6 9.656064 0 0
4:29 am 04:29 Cloudy with Mist and Fog 35 1.7 33 0.6 93 93 W 7 11 30.12 1020 6 9.656064 0 0
4:52 am 04:52 Cloudy 35 1.7 33 0.6 93 93 WNW 7 11 30.09 1019 7 11.265408 0 0
5:52 am 05:52 Cloudy 35 1.7 31 -0.6 85 85 W 9 15 30.09 1019 10 16.09344 0 0
6:52 am 06:52 Cloudy 35 1.7 31 -0.6 85 85 WNW 6 9 30.09 1019 10 16.09344 0 0
7:25 am 07:25 Cloudy 35 1.7 30 -1.1 82 82 WNW 7 11 30.15 1021 10 16.09344 0 0
7:52 am 07:52 Cloudy 34 1.1 31 -0.6 89 89 NW 7 11 30.12 1020 10 16.09344 0 0
8:52 am 08:52 Cloudy 34 1.1 30 -1.1 85 85 NW 7 11 30.15 1021 8 12.874752 0 0
9:13 am 09:13 Cloudy 34 1.1 30 -1.1 85 85 WNW 5 7 30.21 1023 8 12.874752 0 0
9:52 am 09:52 Cloudy 34 1.1 30 -1.1 85 85 NW 5 7 30.15 1021 7 11.265408 0 0
10:52 am 10:52 Cloudy with Mist and Fog 34 1.1 30 -1.1 85 85 WNW 3 6 30.18 1022 6 9.656064 0 0
11:52 am 11:52 Cloudy with Haze 35 1.7 30 -1.1 82 82 N 3 6 30.18 1022 6 9.656064 0 0
12:52 pm 12:52 Cloudy 35 1.7 30 -1.1 82 82 WSW 3 6 30.15 1021 7 11.265408 0 0
1:52 pm 13:52 Cloudy with Haze 35 1.7 30 -1.1 82 82 Calm 30.12 1020 6 9.656064 0 0
2:16 pm 14:16 Cloudy with Haze 35 1.7 30 -1.1 82 82 NNW 3 6 30.15 1021 6 9.656064 0 0
2:52 pm 14:52 Cloudy 35 1.7 29 -1.7 78 78 N 5 7 30.12 1020 7 11.265408 0 0
3:52 pm 15:52 Cloudy 35 1.7 29 -1.7 78 78 ENE 5 7 30.12 1020 8 12.874752 0 0
4:52 pm 16:52 Cloudy 35 1.7 30 -1.1 82 82 E 5 7 30.12 1020 7 11.265408 0 0
5:52 pm 17:52 Cloudy 35 1.7 29 -1.7 78 78 ESE 7 11 30.12 1020 8 12.874752 0 0
6:52 pm 18:52 Cloudy 35 1.7 30 -1.1 82 82 ESE 6 9 30.15 1021 8 12.874752 0 0
7:52 pm 19:52 Cloudy 35 1.7 30 -1.1 82 82 ESE 6 9 30.12 1020 8 12.874752 0 0
8:52 pm 20:52 Cloudy 35 1.7 30 -1.1 82 82 E 9 15 30.12 1020 8 12.874752 0 0
9:52 pm 21:52 Cloudy 35 1.7 30 -1.1 82 82 ESE 8 13 30.09 1019 7 11.265408 0 0
10:52 pm 22:52 Cloudy 35 1.7 31 -0.6 85 85 E 12 19 30.09 1019 7 11.265408 0 0
11:52 pm 23:52 Cloudy 35 1.7 31 -0.6 85 85 E 13 20 30.03 1017 8 12.874752 0 0

Powered by AerisWeather